Time,TemperatureF,DewpointF,PressureIn,WindDirection,WindDirectionDegrees,WindSpeedMPH,WindSpeedGustMPH,Humidity,HourlyPrecipIn,Conditions,Clouds,dailyrainin,SoftwareType,DateUTC
2013-01-18 00:04:00,8.2,-99.9,0.00,North,358,5.4,7.0,-99,0.00,NA,NA,-99.99,WeatherLink_script,2013-01-18 05:04:00,
2013-01-18 00:09:00,8.1,-99.9,0.00,North,359,4.5,7.0,-99,0.00,NA,NA,-99.99,WeatherLink_script,2013-01-18 05:09:00,
2013-01-18 00:15:00,8.0,-99.9,0.00,North,358,4.7,7.0,-99,0.00,NA,NA,-99.99,WeatherLink_script,2013-01-18 05:15:00,
2013-01-18 00:20:00,8.0,-99.9,0.00,North,2,4.8,5.0,-99,0.00,NA,NA,-99.99,WeatherLink_script,2013-01-18 05:20:00,
2013-01-18 00:25:00,8.0,-99.9,0.00,North,3,3.3,5.0,-99,0.00,NA,NA,-99.99,WeatherLink_script,2013-01-18 05:25:00,
2013-01-18 00:30:00,7.9,-99.9,0.00,North,3,3.8,5.0,-99,0.00,NA,NA,-99.99,WeatherLink_script,2013-01-18 05:30:00,
2013-01-18 00:38:00,7.9,-99.9,0.00,North,2,3.2,4.0,-99,0.00,NA,NA,-99.99,WeatherLink_script,2013-01-18 05:38:00,
2013-01-18 00:44:00,7.7,-99.9,0.00,North,1,2.9,5.0,-99,0.00,NA,NA,-99.99,WeatherLink_script,2013-01-18 05:44:00,
2013-01-18 00:49:00,7.7,-99.9,0.00,North,359,3.6,5.0,-99,0.00,NA,NA,-99.99,WeatherLink_script,2013-01-18 05:49:00,
2013-01-18 00:54:00,7.5,-99.9,0.00,North,359,3.3,5.0,-99,0.00,NA,NA,-99.99,WeatherLink_script,2013-01-18 05:54:00,
2013-01-18 01:00:00,7.4,-99.9,0.00,North,0,3.4,4.0,-99,0.00,NA,NA,-99.99,WeatherLink_script,2013-01-18 06:00:00,
2013-01-18 01:05:00,7.3,-99.9,0.00,North,3,4.0,5.0,-99,0.00,NA,NA,-99.99,WeatherLink_script,2013-01-18 06:05:00,
2013-01-18 01:10:00,7.2,-99.9,0.00,North,2,2.8,5.0,-99,0.00,NA,NA,-99.99,WeatherLink_script,2013-01-18 06:10:00,
2013-01-18 01:16:00,6.8,-99.9,0.00,North,4,2.4,5.0,-99,0.00,NA,NA,-99.99,WeatherLink_script,2013-01-18 06:16:00,
2013-01-18 01:21:00,6.5,-99.9,0.00,North,3,2.7,3.0,-99,0.00,NA,NA,-99.99,WeatherLink_script,2013-01-18 06:21:00,
2013-01-18 01:26:00,6.3,-99.9,0.00,North,2,2.3,3.0,-99,0.00,NA,NA,-99.99,WeatherLink_script,2013-01-18 06:26:00,
2013-01-18 01:32:00,6.3,-99.9,0.00,North,2,2.6,4.0,-99,0.00,NA,NA,-99.99,WeatherLink_script,2013-01-18 06:32:00,
2013-01-18 01:37:00,5.9,-99.9,0.00,North,1,1.5,4.0,-99,0.00,NA,NA,-99.99,WeatherLink_script,2013-01-18 06:37:00,
2013-01-18 01:43:00,5.8,-99.9,0.00,North,8,0.1,4.0,-99,0.00,NA,NA,-99.99,WeatherLink_script,2013-01-18 06:43:00,
2013-01-18 01:48:00,5.5,-99.9,0.00,North,1,2.8,3.0,-99,0.00,NA,NA,-99.99,WeatherLink_script,2013-01-18 06:48:00,
2013-01-18 01:53:00,4.7,-99.9,0.00,North,358,1.5,3.0,-99,0.00,NA,NA,-99.99,WeatherLink_script,2013-01-18 06:53:00,
2013-01-18 01:59:00,4.4,-99.9,0.00,NNE,14,0.7,3.0,-99,0.00,NA,NA,-99.99,WeatherLink_script,2013-01-18 06:59:00,
2013-01-18 02:04:00,4.6,-99.9,0.00,North,0,0.2,3.0,-99,0.00,NA,NA,-99.99,WeatherLink_script,2013-01-18 07:04:00,
2013-01-18 02:10:00,4.7,-99.9,0.00,North,352,0.0,1.0,-99,0.00,NA,NA,-99.99,WeatherLink_script,2013-01-18 07:10:00,
2013-01-18 02:15:00,4.4,-99.9,0.00,North,2,0.0,1.0,-99,0.00,NA,NA,-99.99,WeatherLink_script,2013-01-18 07:15:00,
2013-01-18 02:20:00,4.1,-99.9,0.00,SSE,152,0.0,1.0,-99,0.00,NA,NA,-99.99,WeatherLink_script,2013-01-18 07:20:00,
2013-01-18 02:25:00,3.9,-99.9,0.00,SSE,156,0.0,0.0,-99,0.00,NA,NA,-99.99,WeatherLink_script,2013-01-18 07:25:00,
2013-01-18 02:31:00,3.8,-99.9,0.00,North,0,0.0,0.0,-99,0.00,NA,NA,-99.99,WeatherLink_script,2013-01-18 07:31:00,
2013-01-18 02:36:00,3.8,-99.9,0.00,ESE,123,0.1,1.0,-99,0.00,NA,NA,-99.99,WeatherLink_script,2013-01-18 07:36:00,
2013-01-18 02:41:00,3.3,-99.9,0.00,WSW,251,0.0,1.0,-99,0.00,NA,NA,-99.99,WeatherLink_script,2013-01-18 07:41:00,
2013-01-18 02:47:00,3.1,-99.9,0.00,NW,316,0.0,1.0,-99,0.00,NA,NA,-99.99,WeatherLink_script,2013-01-18 07:47:00,
2013-01-18 02:52:00,3.4,-99.9,0.00,NNW,341,1.2,1.2,-99,0.00,NA,NA,-99.99,WeatherLink_script,2013-01-18 07:52:00,
2013-01-18 02:58:00,2.6,-99.9,0.00,ESE,108,0.0,1.0,-99,0.00,NA,NA,-99.99,WeatherLink_script,2013-01-18 07:58:00,
2013-01-18 03:03:00,1.9,-99.9,0.00,East,83,0.2,1.0,-99,0.00,NA,NA,-99.99,WeatherLink_script,2013-01-18 08:03:00,
2013-01-18 03:08:00,1.5,-99.9,0.00,NNE,29,0.0,0.0,-99,0.00,NA,NA,-99.99,WeatherLink_script,2013-01-18 08:08:00,
2013-01-18 03:14:00,0.7,-99.9,0.00,NNW,332,0.4,0.0,-99,0.00,NA,NA,-99.99,WeatherLink_script,2013-01-18 08:14:00,
2013-01-18 03:19:00,1.1,-99.9,0.00,NNW,341,1.3,1.3,-99,0.00,NA,NA,-99.99,WeatherLink_script,2013-01-18 08:19:00,
2013-01-18 03:24:00,1.0,-99.9,0.00,NNW,340,1.1,1.1,-99,0.00,NA,NA,-99.99,WeatherLink_script,2013-01-18 08:24:00,
2013-01-18 03:30:00,0.4,-99.9,0.00,North,8,0.0,1.0,-99,0.00,NA,NA,-99.99,WeatherLink_script,2013-01-18 08:30:00,
2013-01-18 03:35:00,0.2,-99.9,0.00,ESE,119,0.1,1.0,-99,0.00,NA,NA,-99.99,WeatherLink_script,2013-01-18 08:35:00,
2013-01-18 03:40:00,-0.1,-99.9,0.00,ENE,78,0.0,0.0,-99,0.00,NA,NA,-99.99,WeatherLink_script,2013-01-18 08:40:00,
2013-01-18 03:46:00,-0.6,-99.9,0.00,SE,146,0.0,0.0,-99,0.00,NA,NA,-99.99,WeatherLink_script,2013-01-18 08:46:00,
2013-01-18 03:51:00,-0.6,-99.9,0.00,NW,317,0.0,0.0,-99,0.00,NA,NA,-99.99,WeatherLink_script,2013-01-18 08:51:00,
2013-01-18 03:57:00,-0.8,-99.9,0.00,North,3,0.0,0.0,-99,0.00,NA,NA,-99.99,WeatherLink_script,2013-01-18 08:57:00,
2013-01-18 04:02:00,-0.7,-99.9,0.00,NW,324,0.0,0.0,-99,0.00,NA,NA,-99.99,WeatherLink_script,2013-01-18 09:02:00,
2013-01-18 04:07:00,-1.1,-99.9,0.00,NNW,342,0.0,0.0,-99,0.00,NA,NA,-99.99,WeatherLink_script,2013-01-18 09:07:00,
2013-01-18 04:13:00,-1.5,-99.9,0.00,North,357,0.9,1.0,-99,0.00,NA,NA,-99.99,WeatherLink_script,2013-01-18 09:13:00,
2013-01-18 04:18:00,-2.5,-99.9,0.00,North,356,0.9,1.0,-99,0.00,NA,NA,-99.99,WeatherLink_script,2013-01-18 09:18:00,
2013-01-18 04:23:00,-3.1,-99.9,0.00,North,8,2.8,4.0,-99,0.00,NA,NA,-99.99,WeatherLink_script,2013-01-18 09:23:00,
2013-01-18 04:29:00,-3.0,-99.9,0.00,North,7,1.5,4.0,-99,0.00,NA,NA,-99.99,WeatherLink_script,2013-01-18 09:29:00,
2013-01-18 04:34:00,-2.9,-99.9,0.00,North,0,1.7,4.0,-99,0.00,NA,NA,-99.99,WeatherLink_script,2013-01-18 09:34:00,
2013-01-18 04:39:00,-3.9,-99.9,0.00,North,1,0.0,0.0,-99,0.00,NA,NA,-99.99,WeatherLink_script,2013-01-18 09:39:00,
2013-01-18 04:45:00,-4.0,-99.9,0.00,East,80,0.5,1.0,-99,0.00,NA,NA,-99.99,WeatherLink_script,2013-01-18 09:45:00,
2013-01-18 04:50:00,-3.6,-99.9,0.00,NNE,18,1.2,1.2,-99,0.00,NA,NA,-99.99,WeatherLink_script,2013-01-18 09:50:00,
2013-01-18 04:55:00,-4.3,-99.9,0.00,NNW,346,1.0,1.0,-99,0.00,NA,NA,-99.99,WeatherLink_script,2013-01-18 09:55:00,
2013-01-18 05:01:00,-5.3,-99.9,0.00,North,359,0.9,1.0,-99,0.00,NA,NA,-99.99,WeatherLink_script,2013-01-18 10:01:00,
2013-01-18 05:06:00,-5.5,-99.9,0.00,North,349,0.6,1.0,-99,0.00,NA,NA,-99.99,WeatherLink_script,2013-01-18 10:06:00,
2013-01-18 05:11:00,-5.7,-99.9,0.00,North,2,0.8,1.0,-99,0.00,NA,NA,-99.99,WeatherLink_script,2013-01-18 10:11:00,
2013-01-18 05:16:00,-5.3,-99.9,0.00,ENE,57,0.0,1.0,-99,0.00,NA,NA,-99.99,WeatherLink_script,2013-01-18 10:16:00,
2013-01-18 05:22:00,-5.5,-99.9,0.00,North,355,0.0,1.0,-99,0.00,NA,NA,-99.99,WeatherLink_script,2013-01-18 10:22:00,
2013-01-18 05:27:00,-5.9,-99.9,0.00,North,351,1.2,1.2,-99,0.00,NA,NA,-99.99,WeatherLink_script,2013-01-18 10:27:00,
2013-01-18 05:33:00,-5.9,-99.9,0.00,NNW,346,1.1,1.1,-99,0.00,NA,NA,-99.99,WeatherLink_script,2013-01-18 10:33:00,
2013-01-18 05:38:00,-6.3,-99.9,0.00,North,1,1.7,2.0,-99,0.00,NA,NA,-99.99,WeatherLink_script,2013-01-18 10:38:00,
2013-01-18 05:43:00,-6.5,-99.9,0.00,North,0,1.3,2.0,-99,0.00,NA,NA,-99.99,WeatherLink_script,2013-01-18 10:43:00,
2013-01-18 05:49:00,-6.7,-99.9,0.00,NNE,14,1.4,2.0,-99,0.00,NA,NA,-99.99,WeatherLink_script,2013-01-18 10:49:00,
2013-01-18 05:54:00,-7.4,-99.9,0.00,NNW,347,1.0,1.0,-99,0.00,NA,NA,-99.99,WeatherLink_script,2013-01-18 10:54:00,
2013-01-18 05:59:00,-7.7,-99.9,0.00,North,354,0.8,1.0,-99,0.00,NA,NA,-99.99,WeatherLink_script,2013-01-18 10:59:00,
2013-01-18 06:05:00,-7.7,-99.9,0.00,NNW,343,0.8,1.0,-99,0.00,NA,NA,-99.99,WeatherLink_script,2013-01-18 11:05:00,
2013-01-18 06:10:00,-7.6,-99.9,0.00,NE,56,0.0,0.0,-99,0.00,NA,NA,-99.99,WeatherLink_script,2013-01-18 11:10:00,
2013-01-18 06:15:00,-7.2,-99.9,0.00,North,7,0.3,2.0,-99,0.00,NA,NA,-99.99,WeatherLink_script,2013-01-18 11:15:00,
2013-01-18 06:21:00,-7.8,-99.9,0.00,WSW,245,0.0,2.0,-99,0.00,NA,NA,-99.99,WeatherLink_script,2013-01-18 11:21:00,
2013-01-18 06:26:00,-7.5,-99.9,0.00,WNW,293,0.0,2.0,-99,0.00,NA,NA,-99.99,WeatherLink_script,2013-01-18 11:26:00,
2013-01-18 06:32:00,-7.6,-99.9,0.00,West,263,0.0,0.0,-99,0.00,NA,NA,-99.99,WeatherLink_script,2013-01-18 11:32:00,
2013-01-18 06:37:00,-7.9,-99.9,0.00,SSE,154,0.0,0.0,-99,0.00,NA,NA,-99.99,WeatherLink_script,2013-01-18 11:37:00,
2013-01-18 06:42:00,-7.6,-99.9,0.00,WNW,295,0.0,0.0,-99,0.00,NA,NA,-99.99,WeatherLink_script,2013-01-18 11:42:00,
2013-01-18 06:48:00,-7.8,-99.9,0.00,SSE,166,0.0,0.0,-99,0.00,NA,NA,-99.99,WeatherLink_script,2013-01-18 11:48:00,
2013-01-18 06:53:00,-7.2,-99.9,0.00,West,260,0.0,0.0,-99,0.00,NA,NA,-99.99,WeatherLink_script,2013-01-18 11:53:00,
2013-01-18 06:58:00,-7.3,-99.9,0.00,South,180,0.0,0.0,-99,0.00,NA,NA,-99.99,WeatherLink_script,2013-01-18 11:58:00,
2013-01-18 07:03:00,-7.1,-99.9,0.00,South,179,0.0,0.0,-99,0.00,NA,NA,-99.99,WeatherLink_script,2013-01-18 12:03:00,
2013-01-18 07:09:00,-7.2,-99.9,0.00,SSE,157,0.0,0.0,-99,0.00,NA,NA,-99.99,WeatherLink_script,2013-01-18 12:09:00,
2013-01-18 07:14:00,-6.9,-99.9,0.00,South,175,0.4,1.0,-99,0.00,NA,NA,-99.99,WeatherLink_script,2013-01-18 12:14:00,
2013-01-18 07:19:00,-7.3,-99.9,0.00,South,183,0.1,1.0,-99,0.00,NA,NA,-99.99,WeatherLink_script,2013-01-18 12:19:00,
2013-01-18 07:24:00,-7.1,-99.9,0.00,SSE,166,0.0,1.0,-99,0.00,NA,NA,-99.99,WeatherLink_script,2013-01-18 12:24:00,
2013-01-18 07:30:00,-7.3,-99.9,0.00,SSE,158,0.0,2.0,-99,0.00,NA,NA,-99.99,WeatherLink_script,2013-01-18 12:30:00,
2013-01-18 07:35:00,-7.6,-99.9,0.00,SSE,148,0.0,2.0,-99,0.00,NA,NA,-99.99,WeatherLink_script,2013-01-18 12:35:00,
2013-01-18 07:40:00,-8.2,-99.9,0.00,SSE,151,0.0,2.0,-99,0.00,NA,NA,-99.99,WeatherLink_script,2013-01-18 12:40:00,
2013-01-18 07:45:00,-8.7,-99.9,0.00,NNW,337,1.0,2.0,-99,0.00,NA,NA,-99.99,WeatherLink_script,2013-01-18 12:45:00,
2013-01-18 07:51:00,-8.7,-99.9,0.00,North,357,1.1,2.0,-99,0.00,NA,NA,-99.99,WeatherLink_script,2013-01-18 12:51:00,
2013-01-18 07:56:00,-4.6,-99.9,0.00,North,359,1.9,2.0,-99,0.00,NA,NA,-99.99,WeatherLink_script,2013-01-18 12:56:00,
2013-01-18 08:01:00,-5.8,-99.9,0.00,NNW,343,1.2,2.0,-99,0.00,NA,NA,-99.99,WeatherLink_script,2013-01-18 13:01:00,
2013-01-18 08:07:00,-7.6,-99.9,0.00,North,10,1.6,2.0,-99,0.00,NA,NA,-99.99,WeatherLink_script,2013-01-18 13:07:00,
2013-01-18 08:12:00,-6.5,-99.9,0.00,North,11,1.1,2.0,-99,0.00,NA,NA,-99.99,WeatherLink_script,2013-01-18 13:12:00,
2013-01-18 08:17:00,-6.3,-99.9,0.00,North,357,1.6,3.0,-99,0.00,NA,NA,-99.99,WeatherLink_script,2013-01-18 13:17:00,
2013-01-18 08:23:00,-4.5,-99.9,0.00,North,359,1.1,3.0,-99,0.00,NA,NA,-99.99,WeatherLink_script,2013-01-18 13:23:00,
2013-01-18 08:28:00,-1.5,-99.9,0.00,NW,326,0.7,3.0,-99,0.00,NA,NA,-99.99,WeatherLink_script,2013-01-18 13:28:00,
2013-01-18 08:34:00,-1.1,-99.9,0.00,North,359,2.6,2.6,-99,0.00,NA,NA,-99.99,WeatherLink_script,2013-01-18 13:34:00,
2013-01-18 08:39:00,-1.4,-99.9,0.00,NE,53,0.9,2.0,-99,0.00,NA,NA,-99.99,WeatherLink_script,2013-01-18 13:39:00,
2013-01-18 08:44:00,-2.8,-99.9,0.00,NNW,345,1.7,2.0,-99,0.00,NA,NA,-99.99,WeatherLink_script,2013-01-18 13:44:00,
2013-01-18 08:50:00,-0.1,-99.9,0.00,North,354,0.2,1.0,-99,0.00,NA,NA,-99.99,WeatherLink_script,2013-01-18 13:50:00,
2013-01-18 08:55:00,2.1,-99.9,0.00,North,2,1.6,2.0,-99,0.00,NA,NA,-99.99,WeatherLink_script,2013-01-18 13:55:00,
2013-01-18 09:00:00,3.3,-99.9,0.00,North,0,1.5,2.0,-99,0.00,NA,NA,-99.99,WeatherLink_script,2013-01-18 14:00:00,
2013-01-18 09:06:00,2.5,-99.9,0.00,NW,325,2.0,2.0,-99,0.00,NA,NA,-99.99,WeatherLink_script,2013-01-18 14:06:00,
2013-01-18 09:11:00,5.0,-99.9,0.00,South,171,0.0,0.0,-99,0.00,NA,NA,-99.99,WeatherLink_script,2013-01-18 14:11:00,
2013-01-18 09:16:00,8.3,-99.9,0.00,SE,136,0.0,0.0,-99,0.00,NA,NA,-99.99,WeatherLink_script,2013-01-18 14:16:00,
2013-01-18 09:22:00,10.1,-99.9,0.00,NNW,334,0.1,0.0,-99,0.00,NA,NA,-99.99,WeatherLink_script,2013-01-18 14:22:00,
2013-01-18 09:27:00,11.3,-99.9,0.00,NE,34,0.0,1.0,-99,0.00,NA,NA,-99.99,WeatherLink_script,2013-01-18 14:27:00,
2013-01-18 09:32:00,10.4,-99.9,0.00,NNW,343,0.2,1.0,-99,0.00,NA,NA,-99.99,WeatherLink_script,2013-01-18 14:32:00,
2013-01-18 09:38:00,10.1,-99.9,0.00,NW,325,0.0,1.0,-99,0.00,NA,NA,-99.99,WeatherLink_script,2013-01-18 14:38:00,
2013-01-18 09:43:00,10.6,-99.9,0.00,WNW,285,0.8,1.0,-99,0.00,NA,NA,-99.99,WeatherLink_script,2013-01-18 14:43:00,
2013-01-18 09:49:00,11.6,-99.9,0.00,NNE,30,0.0,1.0,-99,0.00,NA,NA,-99.99,WeatherLink_script,2013-01-18 14:49:00,
2013-01-18 09:54:00,8.4,-99.9,0.00,NNW,344,0.3,1.0,-99,0.00,NA,NA,-99.99,WeatherLink_script,2013-01-18 14:54:00,
2013-01-18 09:59:00,9.4,-99.9,0.00,West,264,0.0,2.0,-99,0.00,NA,NA,-99.99,WeatherLink_script,2013-01-18 14:59:00,
2013-01-18 10:04:00,8.4,-99.9,0.00,North,355,1.3,2.0,-99,0.00,NA,NA,-99.99,WeatherLink_script,2013-01-18 15:04:00,
2013-01-18 10:10:00,13.5,-99.9,0.00,North,357,1.9,2.0,-99,0.00,NA,NA,-99.99,WeatherLink_script,2013-01-18 15:10:00,
2013-01-18 10:15:00,9.8,-99.9,0.00,North,2,1.7,2.0,-99,0.00,NA,NA,-99.99,WeatherLink_script,2013-01-18 15:15:00,
2013-01-18 10:20:00,11.5,-99.9,0.00,SSE,157,0.1,2.0,-99,0.00,NA,NA,-99.99,WeatherLink_script,2013-01-18 15:20:00,
2013-01-18 10:26:00,12.3,-99.9,0.00,NW,325,2.0,2.0,-99,0.00,NA,NA,-99.99,WeatherLink_script,2013-01-18 15:26:00,
2013-01-18 10:31:00,14.7,-99.9,0.00,West,268,0.1,1.0,-99,0.00,NA,NA,-99.99,WeatherLink_script,2013-01-18 15:31:00,
2013-01-18 10:36:00,15.6,-99.9,0.00,North,357,2.0,2.0,-99,0.00,NA,NA,-99.99,WeatherLink_script,2013-01-18 15:36:00,
2013-01-18 10:42:00,15.1,-99.9,0.00,NNE,19,3.0,5.0,-99,0.00,NA,NA,-99.99,WeatherLink_script,2013-01-18 15:42:00,
2013-01-18 10:47:00,14.6,-99.9,0.00,NNW,333,2.5,5.0,-99,0.00,NA,NA,-99.99,WeatherLink_script,2013-01-18 15:47:00,
2013-01-18 10:52:00,16.6,-99.9,0.00,ENE,72,1.0,5.0,-99,0.00,NA,NA,-99.99,WeatherLink_script,2013-01-18 15:52:00,
2013-01-18 10:58:00,16.1,-99.9,0.00,NE,42,5.8,8.0,-99,0.00,NA,NA,-99.99,WeatherLink_script,2013-01-18 15:58:00,
2013-01-18 11:03:00,14.1,-99.9,0.00,North,3,11.0,15.0,-99,0.00,NA,NA,-99.99,WeatherLink_script,2013-01-18 16:03:00,
2013-01-18 11:09:00,13.6,-99.9,0.00,NNE,20,5.3,15.0,-99,0.00,NA,NA,-99.99,WeatherLink_script,2013-01-18 16:09:00,
2013-01-18 11:14:00,12.8,-99.9,0.00,NNE,33,6.3,15.0,-99,0.00,NA,NA,-99.99,WeatherLink_script,2013-01-18 16:14:00,
2013-01-18 11:19:00,13.2,-99.9,0.00,North,3,8.4,15.0,-99,0.00,NA,NA,-99.99,WeatherLink_script,2013-01-18 16:19:00,
2013-01-18 11:24:00,13.9,-99.9,0.00,NNE,17,5.2,12.0,-99,0.00,NA,NA,-99.99,WeatherLink_script,2013-01-18 16:24:00,
2013-01-18 11:30:00,15.8,-99.9,0.00,NNE,18,5.2,12.0,-99,0.00,NA,NA,-99.99,WeatherLink_script,2013-01-18 16:30:00,
2013-01-18 11:35:00,15.3,-99.9,0.00,North,2,9.6,15.0,-99,0.00,NA,NA,-99.99,WeatherLink_script,2013-01-18 16:35:00,
2013-01-18 11:41:00,15.6,-99.9,0.00,NNE,17,6.5,15.0,-99,0.00,NA,NA,-99.99,WeatherLink_script,2013-01-18 16:41:00,
2013-01-18 11:46:00,15.5,-99.9,0.00,North,4,7.7,15.0,-99,0.00,NA,NA,-99.99,WeatherLink_script,2013-01-18 16:46:00,
2013-01-18 11:51:00,16.6,-99.9,0.00,NNE,12,5.4,6.0,-99,0.00,NA,NA,-99.99,WeatherLink_script,2013-01-18 16:51:00,
2013-01-18 11:57:00,15.9,-99.9,0.00,North,5,7.9,13.0,-99,0.00,NA,NA,-99.99,WeatherLink_script,2013-01-18 16:57:00,
2013-01-18 12:02:00,15.8,-99.9,0.00,North,1,8.3,13.0,-99,0.00,NA,NA,-99.99,WeatherLink_script,2013-01-18 17:02:00,
2013-01-18 12:07:00,17.5,-99.9,0.00,East,84,3.1,13.0,-99,0.00,NA,NA,-99.99,WeatherLink_script,2013-01-18 17:07:00,
2013-01-18 12:12:00,19.1,-99.9,0.00,North,359,2.6,3.0,-99,0.00,NA,NA,-99.99,WeatherLink_script,2013-01-18 17:12:00,
2013-01-18 12:18:00,18.2,-99.9,0.00,NNE,21,6.8,10.0,-99,0.00,NA,NA,-99.99,WeatherLink_script,2013-01-18 17:18:00,
2013-01-18 12:23:00,18.0,-99.9,0.00,NNE,17,3.5,11.0,-99,0.00,NA,NA,-99.99,WeatherLink_script,2013-01-18 17:23:00,
2013-01-18 12:28:00,19.6,-99.9,0.00,NNE,12,3.2,12.0,-99,0.00,NA,NA,-99.99,WeatherLink_script,2013-01-18 17:28:00,
2013-01-18 12:34:00,18.7,-99.9,0.00,North,3,5.8,12.0,-99,0.00,NA,NA,-99.99,WeatherLink_script,2013-01-18 17:34:00,
2013-01-18 12:39:00,19.2,-99.9,0.00,North,7,5.1,12.0,-99,0.00,NA,NA,-99.99,WeatherLink_script,2013-01-18 17:39:00,
2013-01-18 12:44:00,19.2,-99.9,0.00,North,0,7.3,10.0,-99,0.00,NA,NA,-99.99,WeatherLink_script,2013-01-18 17:44:00,
2013-01-18 12:50:00,18.5,-99.9,0.00,NE,49,4.1,11.0,-99,0.00,NA,NA,-99.99,WeatherLink_script,2013-01-18 17:50:00,
2013-01-18 12:55:00,19.4,-99.9,0.00,North,0,8.6,12.0,-99,0.00,NA,NA,-99.99,WeatherLink_script,2013-01-18 17:55:00,
2013-01-18 13:00:00,16.4,-99.9,0.00,North,1,9.2,12.0,-99,0.00,NA,NA,-99.99,WeatherLink_script,2013-01-18 18:00:00,
2013-01-18 13:05:00,18.7,-99.9,0.00,North,4,5.1,12.0,-99,0.00,NA,NA,-99.99,WeatherLink_script,2013-01-18 18:05:00,
2013-01-18 13:10:00,19.0,-99.9,0.00,NNE,12,5.2,12.0,-99,0.00,NA,NA,-99.99,WeatherLink_script,2013-01-18 18:10:00,
2013-01-18 13:16:00,18.7,-99.9,0.00,North,1,5.6,9.0,-99,0.00,NA,NA,-99.99,WeatherLink_script,2013-01-18 18:16:00,
2013-01-18 13:21:00,20.4,-99.9,0.00,North,4,3.5,10.0,-99,0.00,NA,NA,-99.99,WeatherLink_script,2013-01-18 18:21:00,
2013-01-18 13:26:00,23.1,-99.9,0.00,ESE,117,1.2,10.0,-99,0.00,NA,NA,-99.99,WeatherLink_script,2013-01-18 18:26:00,
2013-01-18 13:32:00,22.2,-99.9,0.00,NW,322,0.5,10.0,-99,0.00,NA,NA,-99.99,WeatherLink_script,2013-01-18 18:32:00,
2013-01-18 13:37:00,22.1,-99.9,0.00,NNE,16,3.4,7.0,-99,0.00,NA,NA,-99.99,WeatherLink_script,2013-01-18 18:37:00,
2013-01-18 13:43:00,21.7,-99.9,0.00,North,1,5.5,8.0,-99,0.00,NA,NA,-99.99,WeatherLink_script,2013-01-18 18:43:00,
2013-01-18 13:48:00,21.4,-99.9,0.00,North,2,3.6,8.0,-99,0.00,NA,NA,-99.99,WeatherLink_script,2013-01-18 18:48:00,
2013-01-18 13:53:00,22.0,-99.9,0.00,NNE,26,2.6,8.0,-99,0.00,NA,NA,-99.99,WeatherLink_script,2013-01-18 18:53:00,
2013-01-18 13:59:00,22.4,-99.9,0.00,North,1,4.4,8.0,-99,0.00,NA,NA,-99.99,WeatherLink_script,2013-01-18 18:59:00,
2013-01-18 14:04:00,20.9,-99.9,0.00,NNE,29,2.5,6.0,-99,0.00,NA,NA,-99.99,WeatherLink_script,2013-01-18 19:04:00,
2013-01-18 14:09:00,20.6,-99.9,0.00,North,1,3.5,7.0,-99,0.00,NA,NA,-99.99,WeatherLink_script,2013-01-18 19:09:00,
2013-01-18 14:14:00,20.5,-99.9,0.00,NNE,15,5.5,7.0,-99,0.00,NA,NA,-99.99,WeatherLink_script,2013-01-18 19:14:00,
2013-01-18 14:20:00,21.9,-99.9,0.00,East,82,0.9,7.0,-99,0.00,NA,NA,-99.99,WeatherLink_script,2013-01-18 19:20:00,
2013-01-18 14:25:00,20.9,-99.9,0.00,North,6,4.8,7.0,-99,0.00,NA,NA,-99.99,WeatherLink_script,2013-01-18 19:25:00,
2013-01-18 14:30:00,20.3,-99.9,0.00,North,10,4.3,11.0,-99,0.00,NA,NA,-99.99,WeatherLink_script,2013-01-18 19:30:00,
2013-01-18 14:36:00,21.6,-99.9,0.00,NNE,17,1.7,11.0,-99,0.00,NA,NA,-99.99,WeatherLink_script,2013-01-18 19:36:00,
2013-01-18 14:41:00,20.4,-99.9,0.00,North,6,4.0,11.0,-99,0.00,NA,NA,-99.99,WeatherLink_script,2013-01-18 19:41:00,
2013-01-18 14:47:00,20.3,-99.9,0.00,North,5,3.6,7.0,-99,0.00,NA,NA,-99.99,WeatherLink_script,2013-01-18 19:47:00,
2013-01-18 14:52:00,21.9,-99.9,0.00,NE,34,2.6,7.0,-99,0.00,NA,NA,-99.99,WeatherLink_script,2013-01-18 19:52:00,
2013-01-18 14:57:00,20.1,-99.9,0.00,ENE,74,3.2,7.0,-99,0.00,NA,NA,-99.99,WeatherLink_script,2013-01-18 19:57:00,
2013-01-18 15:02:00,21.1,-99.9,0.00,NE,38,2.7,5.0,-99,0.00,NA,NA,-99.99,WeatherLink_script,2013-01-18 20:02:00,
2013-01-18 15:08:00,22.2,-99.9,0.00,NNE,31,2.3,5.0,-99,0.00,NA,NA,-99.99,WeatherLink_script,2013-01-18 20:08:00,
2013-01-18 15:13:00,19.5,-99.9,0.00,North,355,3.5,5.0,-99,0.00,NA,NA,-99.99,WeatherLink_script,2013-01-18 20:13:00,
2013-01-18 15:18:00,20.4,-99.9,0.00,NNE,31,1.5,6.0,-99,0.00,NA,NA,-99.99,WeatherLink_script,2013-01-18 20:18:00,
2013-01-18 15:24:00,21.6,-99.9,0.00,NNE,18,1.4,6.0,-99,0.00,NA,NA,-99.99,WeatherLink_script,2013-01-18 20:24:00,
2013-01-18 15:29:00,20.6,-99.9,0.00,NNE,17,2.9,6.0,-99,0.00,NA,NA,-99.99,WeatherLink_script,2013-01-18 20:29:00,
2013-01-18 15:34:00,20.1,-99.9,0.00,North,8,2.7,3.0,-99,0.00,NA,NA,-99.99,WeatherLink_script,2013-01-18 20:34:00,
2013-01-18 15:40:00,19.6,-99.9,0.00,NNW,340,0.4,3.0,-99,0.00,NA,NA,-99.99,WeatherLink_script,2013-01-18 20:40:00,
2013-01-18 15:45:00,20.3,-99.9,0.00,North,2,1.1,3.0,-99,0.00,NA,NA,-99.99,WeatherLink_script,2013-01-18 20:45:00,
2013-01-18 15:50:00,20.6,-99.9,0.00,NW,309,0.2,1.0,-99,0.00,NA,NA,-99.99,WeatherLink_script,2013-01-18 20:50:00,
2013-01-18 15:56:00,20.6,-99.9,0.00,ENE,62,0.4,2.0,-99,0.00,NA,NA,-99.99,WeatherLink_script,2013-01-18 20:56:00,
2013-01-18 16:01:00,19.5,-99.9,0.00,NNE,15,0.8,2.0,-99,0.00,NA,NA,-99.99,WeatherLink_script,2013-01-18 21:01:00,
2013-01-18 16:07:00,19.7,-99.9,0.00,NNE,20,0.2,2.0,-99,0.00,NA,NA,-99.99,WeatherLink_script,2013-01-18 21:07:00,
2013-01-18 16:12:00,18.6,-99.9,0.00,North,7,0.9,1.0,-99,0.00,NA,NA,-99.99,WeatherLink_script,2013-01-18 21:12:00,
2013-01-18 16:17:00,16.0,-99.9,0.00,North,9,2.3,3.0,-99,0.00,NA,NA,-99.99,WeatherLink_script,2013-01-18 21:17:00,
2013-01-18 16:23:00,14.2,-99.9,0.00,NE,48,0.1,3.0,-99,0.00,NA,NA,-99.99,WeatherLink_script,2013-01-18 21:23:00,
2013-01-18 16:28:00,13.4,-99.9,0.00,East,100,0.0,3.0,-99,0.00,NA,NA,-99.99,WeatherLink_script,2013-01-18 21:28:00,
2013-01-18 16:33:00,12.8,-99.9,0.00,WNW,292,0.0,0.0,-99,0.00,NA,NA,-99.99,WeatherLink_script,2013-01-18 21:33:00,
2013-01-18 16:38:00,10.9,-99.9,0.00,NNW,342,0.2,1.0,-99,0.00,NA,NA,-99.99,WeatherLink_script,2013-01-18 21:38:00,
2013-01-18 16:44:00,10.6,-99.9,0.00,ENE,71,0.0,1.0,-99,0.00,NA,NA,-99.99,WeatherLink_script,2013-01-18 21:44:00,
2013-01-18 16:49:00,10.4,-99.9,0.00,NNE,16,0.0,1.0,-99,0.00,NA,NA,-99.99,WeatherLink_script,2013-01-18 21:49:00,
2013-01-18 16:54:00,9.9,-99.9,0.00,NW,324,0.0,0.0,-99,0.00,NA,NA,-99.99,WeatherLink_script,2013-01-18 21:54:00,
2013-01-18 17:00:00,9.3,-99.9,0.00,NW,306,0.0,0.0,-99,0.00,NA,NA,-99.99,WeatherLink_script,2013-01-18 22:00:00,
2013-01-18 17:05:00,8.7,-99.9,0.00,SE,124,0.0,0.0,-99,0.00,NA,NA,-99.99,WeatherLink_script,2013-01-18 22:05:00,
2013-01-18 17:11:00,8.2,-99.9,0.00,NNW,344,0.0,0.0,-99,0.00,NA,NA,-99.99,WeatherLink_script,2013-01-18 22:11:00,
2013-01-18 17:16:00,7.1,-99.9,0.00,NNW,346,0.3,1.0,-99,0.00,NA,NA,-99.99,WeatherLink_script,2013-01-18 22:16:00,
2013-01-18 17:21:00,6.2,-99.9,0.00,NE,46,0.0,1.0,-99,0.00,NA,NA,-99.99,WeatherLink_script,2013-01-18 22:21:00,
2013-01-18 17:27:00,6.4,-99.9,0.00,ESE,120,0.0,1.0,-99,0.00,NA,NA,-99.99,WeatherLink_script,2013-01-18 22:27:00,
2013-01-18 17:32:00,6.6,-99.9,0.00,ENE,67,0.1,1.0,-99,0.00,NA,NA,-99.99,WeatherLink_script,2013-01-18 22:32:00,
2013-01-18 17:37:00,5.7,-99.9,0.00,East,90,0.0,1.0,-99,0.00,NA,NA,-99.99,WeatherLink_script,2013-01-18 22:37:00,
2013-01-18 17:43:00,6.1,-99.9,0.00,North,1,1.1,2.0,-99,0.00,NA,NA,-99.99,WeatherLink_script,2013-01-18 22:43:00,
2013-01-18 17:48:00,5.3,-99.9,0.00,NNW,342,0.9,2.0,-99,0.00,NA,NA,-99.99,WeatherLink_script,2013-01-18 22:48:00,
2013-01-18 17:54:00,4.6,-99.9,0.00,North,11,1.7,2.0,-99,0.00,NA,NA,-99.99,WeatherLink_script,2013-01-18 22:54:00,
2013-01-18 17:59:00,4.2,-99.9,0.00,NNW,339,1.1,1.1,-99,0.00,NA,NA,-99.99,WeatherLink_script,2013-01-18 22:59:00,
2013-01-18 18:04:00,3.5,-99.9,0.00,North,359,1.9,2.0,-99,0.00,NA,NA,-99.99,WeatherLink_script,2013-01-18 23:04:00,
2013-01-18 18:09:00,4.0,-99.9,0.00,North,10,0.1,2.0,-99,0.00,NA,NA,-99.99,WeatherLink_script,2013-01-18 23:09:00,
2013-01-18 18:15:00,3.7,-99.9,0.00,NW,322,0.0,2.0,-99,0.00,NA,NA,-99.99,WeatherLink_script,2013-01-18 23:15:00,
2013-01-18 18:20:00,3.3,-99.9,0.00,NW,319,0.0,2.0,-99,0.00,NA,NA,-99.99,WeatherLink_script,2013-01-18 23:20:00,
2013-01-18 18:25:00,2.9,-99.9,0.00,NNW,338,0.0,0.0,-99,0.00,NA,NA,-99.99,WeatherLink_script,2013-01-18 23:25:00,
2013-01-18 18:31:00,3.5,-99.9,0.00,NNW,346,1.1,1.1,-99,0.00,NA,NA,-99.99,WeatherLink_script,2013-01-18 23:31:00,
2013-01-18 18:36:00,3.2,-99.9,0.00,NW,317,0.4,1.0,-99,0.00,NA,NA,-99.99,WeatherLink_script,2013-01-18 23:36:00,
2013-01-18 18:41:00,2.9,-99.9,0.00,NNW,330,0.0,1.0,-99,0.00,NA,NA,-99.99,WeatherLink_script,2013-01-18 23:41:00,
2013-01-18 18:47:00,2.2,-99.9,0.00,NNW,332,0.0,0.0,-99,0.00,NA,NA,-99.99,WeatherLink_script,2013-01-18 23:47:00,
2013-01-18 18:52:00,1.9,-99.9,0.00,North,349,0.4,0.0,-99,0.00,NA,NA,-99.99,WeatherLink_script,2013-01-18 23:52:00,
2013-01-18 18:57:00,2.0,-99.9,0.00,NW,320,1.0,1.0,-99,0.00,NA,NA,-99.99,WeatherLink_script,2013-01-18 23:57:00,
2013-01-18 19:03:00,1.8,-99.9,0.00,NE,34,0.1,1.0,-99,0.00,NA,NA,-99.99,WeatherLink_script,2013-01-19 00:03:00,
2013-01-18 19:08:00,1.5,-99.9,0.00,South,187,0.0,1.0,-99,0.00,NA,NA,-99.99,WeatherLink_script,2013-01-19 00:08:00,
2013-01-18 19:13:00,1.2,-99.9,0.00,NW,318,0.0,0.0,-99,0.00,NA,NA,-99.99,WeatherLink_script,2013-01-19 00:13:00,
2013-01-18 19:19:00,1.2,-99.9,0.00,North,3,0.8,1.0,-99,0.00,NA,NA,-99.99,WeatherLink_script,2013-01-19 00:19:00,
2013-01-18 19:24:00,0.9,-99.9,0.00,NNE,21,0.8,1.0,-99,0.00,NA,NA,-99.99,WeatherLink_script,2013-01-19 00:24:00,
2013-01-18 19:30:00,0.4,-99.9,0.00,North,358,1.0,1.0,-99,0.00,NA,NA,-99.99,WeatherLink_script,2013-01-19 00:30:00,
2013-01-18 19:35:00,0.3,-99.9,0.00,North,356,1.2,1.2,-99,0.00,NA,NA,-99.99,WeatherLink_script,2013-01-19 00:35:00,
2013-01-18 19:40:00,0.1,-99.9,0.00,North,0,1.9,2.0,-99,0.00,NA,NA,-99.99,WeatherLink_script,2013-01-19 00:40:00,
2013-01-18 19:51:00,-0.6,-99.9,0.00,NNW,329,0.3,3.0,-99,0.00,NA,NA,-99.99,WeatherLink_script,2013-01-19 00:51:00,
2013-01-18 19:59:00,-0.5,-99.9,0.00,North,0,1.6,1.6,-99,0.00,NA,NA,-99.99,WeatherLink_script,2013-01-19 00:59:00,
2013-01-18 20:04:00,-0.7,-99.9,0.00,North,359,1.8,2.0,-99,0.00,NA,NA,-99.99,WeatherLink_script,2013-01-19 01:04:00,
2013-01-18 20:10:00,-0.8,-99.9,0.00,NNW,340,1.2,2.0,-99,0.00,NA,NA,-99.99,WeatherLink_script,2013-01-19 01:10:00,
2013-01-18 20:15:00,-1.5,-99.9,0.00,North,6,1.5,2.0,-99,0.00,NA,NA,-99.99,WeatherLink_script,2013-01-19 01:15:00,
2013-01-18 20:20:00,-1.7,-99.9,0.00,NNW,340,1.2,2.0,-99,0.00,NA,NA,-99.99,WeatherLink_script,2013-01-19 01:20:00,
2013-01-18 20:26:00,-1.8,-99.9,0.00,North,0,1.7,2.0,-99,0.00,NA,NA,-99.99,WeatherLink_script,2013-01-19 01:26:00,
2013-01-18 20:31:00,-2.0,-99.9,0.00,North,3,1.9,2.0,-99,0.00,NA,NA,-99.99,WeatherLink_script,2013-01-19 01:31:00,
2013-01-18 20:37:00,-1.6,-99.9,0.00,NW,323,0.2,2.0,-99,0.00,NA,NA,-99.99,WeatherLink_script,2013-01-19 01:37:00,
2013-01-18 20:42:00,-1.2,-99.9,0.00,North,8,0.6,2.0,-99,0.00,NA,NA,-99.99,WeatherLink_script,2013-01-19 01:42:00,
2013-01-18 20:47:00,-1.2,-99.9,0.00,NNW,327,1.0,2.0,-99,0.00,NA,NA,-99.99,WeatherLink_script,2013-01-19 01:47:00,
2013-01-18 20:53:00,-1.2,-99.9,0.00,North,9,0.0,0.0,-99,0.00,NA,NA,-99.99,WeatherLink_script,2013-01-19 01:53:00,
2013-01-18 20:58:00,-1.4,-99.9,0.00,North,352,0.0,0.0,-99,0.00,NA,NA,-99.99,WeatherLink_script,2013-01-19 01:58:00,
2013-01-18 21:03:00,-1.3,-99.9,0.00,North,352,0.0,0.0,-99,0.00,NA,NA,-99.99,WeatherLink_script,2013-01-19 02:03:00,
2013-01-18 21:09:00,-1.2,-99.9,0.00,North,0,1.9,2.0,-99,0.00,NA,NA,-99.99,WeatherLink_script,2013-01-19 02:09:00,
2013-01-18 21:14:00,-1.1,-99.9,0.00,North,352,0.7,2.0,-99,0.00,NA,NA,-99.99,WeatherLink_script,2013-01-19 02:14:00,
2013-01-18 21:20:00,-1.7,-99.9,0.00,NNW,330,0.6,2.0,-99,0.00,NA,NA,-99.99,WeatherLink_script,2013-01-19 02:20:00,
2013-01-18 21:25:00,-1.8,-99.9,0.00,North,359,1.4,1.4,-99,0.00,NA,NA,-99.99,WeatherLink_script,2013-01-19 02:25:00,
2013-01-18 21:30:00,-2.0,-99.9,0.00,North,355,1.3,1.3,-99,0.00,NA,NA,-99.99,WeatherLink_script,2013-01-19 02:30:00,
2013-01-18 21:35:00,-1.9,-99.9,0.00,NNW,347,0.1,2.0,-99,0.00,NA,NA,-99.99,WeatherLink_script,2013-01-19 02:35:00,
2013-01-18 21:40:00,-1.8,-99.9,0.00,NNE,31,0.9,2.0,-99,0.00,NA,NA,-99.99,WeatherLink_script,2013-01-19 02:40:00,
2013-01-18 21:46:00,-1.3,-99.9,0.00,NNW,331,1.1,2.0,-99,0.00,NA,NA,-99.99,WeatherLink_script,2013-01-19 02:46:00,
2013-01-18 21:51:00,-1.4,-99.9,0.00,NNW,331,1.2,2.0,-99,0.00,NA,NA,-99.99,WeatherLink_script,2013-01-19 02:51:00,
2013-01-18 21:56:00,-1.4,-99.9,0.00,North,6,1.4,2.0,-99,0.00,NA,NA,-99.99,WeatherLink_script,2013-01-19 02:56:00,
2013-01-18 22:02:00,-1.6,-99.9,0.00,North,2,0.8,1.0,-99,0.00,NA,NA,-99.99,WeatherLink_script,2013-01-19 03:02:00,
2013-01-18 22:07:00,-1.4,-99.9,0.00,North,359,1.5,2.0,-99,0.00,NA,NA,-99.99,WeatherLink_script,2013-01-19 03:07:00,
2013-01-18 22:13:00,-1.0,-99.9,0.00,North,8,1.1,2.0,-99,0.00,NA,NA,-99.99,WeatherLink_script,2013-01-19 03:13:00,
2013-01-18 22:18:00,-1.0,-99.9,0.00,NNW,341,1.3,2.0,-99,0.00,NA,NA,-99.99,WeatherLink_script,2013-01-19 03:18:00,
2013-01-18 22:23:00,-0.5,-99.9,0.00,North,4,2.5,3.0,-99,0.00,NA,NA,-99.99,WeatherLink_script,2013-01-19 03:23:00,
2013-01-18 22:28:00,0.4,-99.9,0.00,North,2,2.4,3.0,-99,0.00,NA,NA,-99.99,WeatherLink_script,2013-01-19 03:28:00,
2013-01-18 22:34:00,0.9,-99.9,0.00,NE,45,1.3,3.0,-99,0.00,NA,NA,-99.99,WeatherLink_script,2013-01-19 03:34:00,
2013-01-18 22:39:00,1.3,-99.9,0.00,ESE,112,1.2,1.2,-99,0.00,NA,NA,-99.99,WeatherLink_script,2013-01-19 03:39:00,
2013-01-18 22:45:00,1.7,-99.9,0.00,NNW,340,1.0,2.0,-99,0.00,NA,NA,-99.99,WeatherLink_script,2013-01-19 03:45:00,
2013-01-18 22:50:00,1.8,-99.9,0.00,NNW,341,1.9,2.0,-99,0.00,NA,NA,-99.99,WeatherLink_script,2013-01-19 03:50:00,
2013-01-18 22:55:00,2.3,-99.9,0.00,NE,55,0.0,2.0,-99,0.00,NA,NA,-99.99,WeatherLink_script,2013-01-19 03:55:00,
2013-01-18 23:01:00,2.4,-99.9,0.00,NNE,12,0.3,2.0,-99,0.00,NA,NA,-99.99,WeatherLink_script,2013-01-19 04:01:00,
2013-01-18 23:09:00,3.1,-99.9,0.00,NW,323,0.0,2.0,-99,0.00,NA,NA,-99.99,WeatherLink_script,2013-01-19 04:09:00,
2013-01-18 23:14:00,3.2,-99.9,0.00,North,359,1.9,2.0,-99,0.00,NA,NA,-99.99,WeatherLink_script,2013-01-19 04:14:00,
2013-01-18 23:19:00,3.3,-99.9,0.00,North,0,1.9,2.0,-99,0.00,NA,NA,-99.99,WeatherLink_script,2013-01-19 04:19:00,
2013-01-18 23:24:00,3.4,-99.9,0.00,North,358,1.1,2.0,-99,0.00,NA,NA,-99.99,WeatherLink_script,2013-01-19 04:24:00,
2013-01-18 23:30:00,3.7,-99.9,0.00,NNE,17,1.2,2.0,-99,0.00,NA,NA,-99.99,WeatherLink_script,2013-01-19 04:30:00,
2013-01-18 23:35:00,3.8,-99.9,0.00,North,8,2.0,2.0,-99,0.00,NA,NA,-99.99,WeatherLink_script,2013-01-19 04:35:00,
2013-01-18 23:40:00,3.9,-99.9,0.00,North,349,1.1,2.0,-99,0.00,NA,NA,-99.99,WeatherLink_script,2013-01-19 04:40:00,
2013-01-18 23:46:00,4.3,-99.9,0.00,North,354,0.3,2.0,-99,0.00,NA,NA,-99.99,WeatherLink_script,2013-01-19 04:46:00,
2013-01-18 23:54:00,4.6,-99.9,0.00,North,357,1.4,1.4,-99,0.00,NA,NA,-99.99,WeatherLink_script,2013-01-19 04:54:00,
2013-01-18 23:59:00,4.9,-99.9,0.00,North,3,1.9,2.0,-99,0.00,NA,NA,-99.99,WeatherLink_script,2013-01-19 04:59:00,